Hourly Data Report for February 20, 2018

MIRAMICHI RCS
NEW BRUNSWICK

47°00'34.000" N
65°27'54.000" W
33.00 m
8100989
71744
ACQ

Download Data

Hourly Data (February 2018)
Hourly Data Report for February 20, 2018
TIME
LST
Temp Definition
°C
Dew Point Definition
°C
Rel Hum Definition
%
Precip. Amount Definition
mm

Wind Dir Definition
10's deg

Wind Spd Definition
km/h
Visibility Definition
km
Stn Press Definition
kPa
Hmdx Definition


Wind Chill Definition


Weather Definition


00:00 2.9 -1.1 75 0.0 24 18   101.97     LegendNANA
01:00 2.3 -0.8 80 0.0 22 14   101.94     LegendNANA
02:00 2.6 -0.4 81 0.0 24 9   101.92     LegendNANA
03:00 2.6 -0.2 82 0.0 24 9   101.90     LegendNANA
04:00 2.1 -0.3 84 0.0 23 2   101.87     LegendNANA
05:00 1.5 -0.6 86 0.0   0   101.96     LegendNANA
06:00 1.2 -0.4 89 0.0 29 1   102.05     LegendNANA
07:00 0.8 -0.8 89 0.0   0   102.07     LegendNANA
08:00 0.6 -0.8 90 0.0 0 1   102.16     LegendNANA
09:00 1.8 -0.9 82 0.0 3 4   102.21     LegendNANA
10:00 3.1 -2.3 68 0.0 3 11   102.23     LegendNANA
11:00 2.7 -2.5 69 0.0 7 20   102.33     LegendNANA
12:00 2.1 -2.6 71 0.0 7 22   102.36     LegendNANA
13:00 0.0 -3.3 78 0.0 7 29   102.41   -6 LegendNANA
14:00 -1.0 -3.8 81 0.0 7 32   102.40   -8 LegendNANA
15:00 -1.9 -4.1 85 0.0 7 30   102.45   -9 LegendNANA
16:00 -2.4 -5.0 82 0.0 7 29   102.48   -9 LegendNANA
17:00 -3.3 -5.9 82 0.0 6 29   102.59   -11 LegendNANA
18:00 -4.1 -6.1 86 0.0 6 28   102.63   -12 LegendNANA
19:00 -4.6 -6.6 86 0.3 7 25   102.75   -12 LegendNANA
20:00 -5.3 -7.1 87 0.3 7 19   102.73   -12 LegendNANA
21:00 -5.1 -6.5 90 0.2 6 13   102.72   -10 LegendNANA
22:00 -5.0 -6.2 91 0.0 6 15   102.63   -11 LegendNANA
23:00 -4.7 -5.8 92 0.0 7 18   102.55   -11 LegendNANA

Notes on Data Quality.

Legend

  • E = Estimated
  • M = Missing
  • NA = Not Available*
  • [empty] = Indicates an unobserved value
Date modified: